Total_Precipitation_Accumulation
2.55 2.43 2.45 2.38 2.29 2.15 2.04 1.97 1.95 1.83 1.78 1.72 1.71 1.68 1.58 1.54 1.56 1.59 1.56 1.60 1.72 1.74 1.70 1.73 1.75 1.82 1.92 1.89 1.92 2.02 2.19 2.42 2.58 2.31 2.14 2.07 2.05 2.09 2.09 1.93 1.80 1.70 1.55
2.09 2.16 2.22 2.12 2.07 1.98 1.93 1.91 1.88 1.73 1.68 1.68 1.66 1.60 1.42 1.35 1.48 1.55 1.51 1.50 1.63 1.64 1.60 1.66 1.67 1.71 1.79 1.83 1.92 2.02 2.14 2.31 2.43 2.48 2.32 2.17 2.09 2.07 2.10 2.05 1.78 1.60 1.52
1.81 1.81 1.87 1.87 1.82 1.80 1.63 1.60 1.59 1.56 1.54 1.55 1.46 1.44 1.36 1.30 1.35 1.38 1.38 1.36 1.41 1.49 1.50 1.56 1.61 1.71 1.70 1.74 1.80 1.87 1.99 2.08 2.27 2.37 2.27 2.17 2.10 2.00 2.15 2.01 1.88 1.99 1.63
1.72 1.81 1.76 1.76 1.80 1.83 1.73 1.60 1.51 1.44 1.41 1.41 1.35 1.30 1.28 1.25 1.14 1.10 1.13 1.20 1.30 1.30 1.28 1.39 1.47 1.54 1.56 1.65 1.66 1.74 1.83 2.02 2.20 2.27 2.14 2.01 1.96 1.99 2.12 2.10 2.01 1.95 1.78
1.56 1.65 1.71 1.67 1.61 1.63 1.67 1.53 1.34 1.27 1.19 1.21 1.20 1.17 1.17 1.09 0.97 0.99 1.04 1.04 1.15 1.18 1.17 1.22 1.27 1.32 1.33 1.36 1.33 1.50 1.69 1.87 2.00 2.09 2.03 1.98 1.93 2.06 2.05 1.97 1.94 1.92 1.76
1.41 1.57 1.63 1.60 1.55 1.49 1.52 1.47 1.39 1.31 1.27 1.22 1.20 1.15 1.08 0.93 0.92 0.90 0.90 0.95 1.04 1.13 1.22 1.21 1.11 1.10 1.07 1.01 1.05 1.17 1.39 1.64 1.90 2.02 1.97 1.96 1.94 2.02 2.12 2.08 2.04 2.11 2.05
1.45 1.46 1.50 1.54 1.59 1.56 1.49 1.47 1.47 1.47 1.42 1.32 1.20 1.15 1.08 0.99 0.90 0.76 0.74 0.79 0.98 1.12 1.20 1.19 1.00 0.92 1.03 1.02 1.06 1.06 1.14 1.29 1.57 1.87 1.96 1.87 1.91 2.04 2.24 2.28 2.22 2.20 2.15
1.43 1.36 1.37 1.38 1.42 1.42 1.45 1.46 1.46 1.45 1.42 1.34 1.22 1.16 1.10 0.92 0.81 0.71 0.71 0.75 0.89 0.92 0.95 1.04 1.11 1.11 1.03 1.06 1.07 1.18 1.24 1.34 1.42 1.56 1.78 1.76 1.74 1.93 2.14 2.17 2.14 2.10 2.04
1.29 1.21 1.17 1.16 1.22 1.23 1.28 1.37 1.47 1.47 1.36 1.24 1.16 1.12 1.07 0.91 0.83 0.80 0.80 0.81 0.86 0.81 0.79 0.85 0.91 0.95 0.94 1.00 1.10 1.29 1.37 1.48 1.45 1.61 1.62 1.55 1.57 1.64 1.66 1.80 2.09 2.29 2.19
1.22 1.11 1.03 1.05 1.14 1.18 1.22 1.33 1.40 1.44 1.30 1.12 1.06 1.07 1.02 0.97 0.86 0.72 0.70 0.70 0.82 0.83 0.86 0.91 0.86 0.75 0.80 0.90 1.11 1.37 1.56 1.61 1.65 1.76 1.72 1.70 1.60 1.57 1.52 1.60 1.99 2.29 2.28
1.08 1.05 1.04 1.07 1.17 1.18 1.27 1.37 1.32 1.22 1.20 1.10 1.06 1.06 0.96 0.84 0.74 0.61 0.60 0.63 0.74 0.81 0.85 0.93 0.92 0.77 0.70 0.77 0.98 1.22 1.41 1.48 1.71 1.96 1.82 1.66 1.62 1.59 1.56 1.57 1.78 1.96 1.97
1.02 1.04 1.11 1.10 1.05 1.03 1.20 1.32 1.27 1.23 1.18 1.13 1.09 1.03 0.91 0.77 0.66 0.58 0.51 0.48 0.52 0.70 0.88 0.91 0.91 0.86 0.79 0.85 0.99 1.15 1.29 1.49 1.71 1.84 1.65 1.48 1.40 1.39 1.44 1.41 1.41 1.44 1.53
1.02 1.15 1.21 1.13 1.17 1.15 1.14 1.19 1.25 1.27 1.16 1.07 1.04 0.97 0.89 0.81 0.70 0.56 0.47 0.45 0.48 0.58 0.77 0.86 0.83 0.79 0.87 1.08 1.21 1.31 1.47 1.69 1.75 1.63 1.50 1.37 1.27 1.32 1.32 1.31 1.30 1.35 1.34
1.10 1.17 1.18 1.18 1.24 1.24 1.15 1.01 0.98 0.99 0.96 0.92 0.90 0.83 0.83 0.83 0.69 0.59 0.57 0.53 0.54 0.60 0.74 0.89 0.95 0.95 1.09 1.27 1.41 1.50 1.62 1.72 1.59 1.46 1.40 1.29 1.19 1.27 1.32 1.28 1.39 1.45 1.45
1.03 1.07 1.09 1.09 1.13 1.19 1.10 0.95 0.88 0.79 0.72 0.69 0.65 0.60 0.66 0.67 0.56 0.53 0.50 0.53 0.60 0.66 0.75 0.91 1.05 1.09 1.19 1.33 1.45 1.52 1.57 1.59 1.51 1.39 1.33 1.26 1.20 1.20 1.17 1.14 1.27 1.38 1.42
0.95 0.92 0.87 0.89 0.92 0.94 0.96 0.91 0.71 0.54 0.46 0.41 0.40 0.41 0.40 0.42 0.40 0.38 0.39 0.46 0.55 0.66 0.80 1.06 1.15 1.13 1.17 1.23 1.34 1.45 1.45 1.45 1.42 1.43 1.43 1.39 1.31 1.22 1.18 1.13 1.16 1.25 1.35
0.89 0.87 0.75 0.69 0.75 0.79 0.78 0.86 0.81 0.57 0.36 0.28 0.27 0.31 0.33 0.31 0.32 0.31 0.35 0.43 0.52 0.65 0.82 1.04 1.15 1.18 1.20 1.22 1.25 1.31 1.37 1.38 1.33 1.36 1.39 1.34 1.24 1.15 1.13 1.14 1.15 1.23 1.27
0.72 0.70 0.68 0.71 0.68 0.66 0.65 0.65 0.68 0.74 0.66 0.50 0.37 0.33 0.32 0.34 0.36 0.35 0.39 0.45 0.53 0.61 0.81 0.99 1.10 1.15 1.19 1.23 1.23 1.21 1.27 1.32 1.28 1.24 1.29 1.27 1.20 1.15 1.16 1.18 1.18 1.14 1.16
0.71 0.71 0.68 0.65 0.61 0.57 0.55 0.53 0.53 0.60 0.65 0.65 0.59 0.49 0.45 0.44 0.45 0.46 0.51 0.56 0.65 0.70 0.77 0.88 0.99 1.06 1.07 1.09 1.15 1.18 1.21 1.25 1.21 1.18 1.21 1.23 1.22 1.19 1.13 1.06 1.02 0.94 0.99
0.67 0.67 0.66 0.63 0.53 0.49 0.50 0.51 0.51 0.55 0.59 0.62 0.65 0.64 0.61 0.66 0.73 0.68 0.63 0.66 0.70 0.70 0.71 0.81 0.91 0.94 0.95 0.91 0.93 0.97 1.01 1.04 1.04 1.08 1.14 1.11 1.06 1.03 0.97 0.91 0.91 0.92 0.96
0.59 0.65 0.66 0.55 0.45 0.43 0.46 0.47 0.46 0.51 0.54 0.55 0.51 0.55 0.71 0.76 0.81 0.77 0.74 0.78 0.83 0.82 0.79 0.81 0.84 0.86 0.86 0.84 0.82 0.81 0.85 0.90 0.92 0.95 1.01 1.00 0.93 0.90 0.85 0.80 0.78 0.79 0.81
0.54 0.57 0.57 0.50 0.45 0.41 0.41 0.42 0.43 0.47 0.50 0.54 0.52 0.54 0.70 0.71 0.75 0.78 0.82 0.89 0.93 0.90 0.86 0.86 0.84 0.82 0.83 0.84 0.80 0.78 0.80 0.84 0.84 0.87 0.89 0.87 0.84 0.80 0.72 0.70 0.69 0.68 0.70
0.51 0.51 0.53 0.50 0.46 0.44 0.43 0.43 0.44 0.48 0.50 0.53 0.55 0.58 0.64 0.72 0.77 0.85 0.93 0.95 0.95 0.96 0.89 0.84 0.91 0.95 0.88 0.81 0.74 0.71 0.72 0.75 0.74 0.79 0.89 0.90 0.82 0.74 0.68 0.65 0.65 0.66 0.65
0.49 0.47 0.47 0.48 0.51 0.55 0.55 0.51 0.46 0.42 0.43 0.47 0.51 0.52 0.57 0.64 0.71 0.76 0.85 0.90 0.96 0.98 0.94 0.92 0.96 0.91 0.79 0.74 0.70 0.68 0.70 0.74 0.75 0.78 0.82 0.85 0.81 0.73 0.65 0.63 0.62 0.65 0.69
0.46 0.47 0.46 0.43 0.42 0.46 0.52 0.52 0.49 0.47 0.46 0.43 0.45 0.48 0.52 0.57 0.62 0.67 0.74 0.79 0.84 0.92 0.88 0.87 0.87 0.78 0.69 0.64 0.62 0.63 0.72 0.70 0.66 0.71 0.76 0.80 0.73 0.67 0.63 0.58 0.59 0.61 0.65
0.43 0.43 0.45 0.42 0.39 0.38 0.40 0.40 0.41 0.44 0.48 0.48 0.45 0.48 0.53 0.54 0.56 0.61 0.64 0.70 0.75 0.79 0.79 0.82 0.81 0.72 0.63 0.60 0.59 0.57 0.53 0.45 0.42 0.49 0.62 0.67 0.61 0.57 0.59 0.60 0.57 0.61 0.65